| time (UTC) | temp C | wind direction | speed KPH | gust KPH | rain 1hr cm | rain 24hr cm | rain mn cm | humidity % | barometer mb |
| 20260505002028 | 13 | 344 | 4.8 | 6.4 | 0.00 | 0.25 | 0.25 | 70 | 820.8 |
| 20260505001501 | 13 | 333 | 3.2 | 6.4 | 0.00 | 0.25 | 0.25 | 68 | 820.7 |
| 20260505000930 | 13 | 333 | 3.2 | 6.4 | 0.00 | 0.25 | 0.25 | 68 | 820.6 |
| 20260505000400 | 13 | 333 | 3.2 | 4.8 | 0.00 | 0.25 | 0.25 | 69 | 820.5 |
| 20260504234857 | 12 | 15 | 0.0 | 3.2 | 0.00 | 0.25 | 0.25 | 71 | 820.6 |
| 20260504234345 | 12 | 15 | 0.0 | 3.2 | 0.03 | 0.25 | 0.25 | 71 | 820.6 |
| 20260504233842 | 12 | 15 | 1.6 | 3.2 | 0.03 | 0.25 | 0.25 | 72 | 820.5 |
| 20260504233341 | 12 | 15 | 1.6 | 3.2 | 0.05 | 0.25 | 0.25 | 73 | 820.5 |
| 20260504232838 | 12 | 15 | 1.6 | 3.2 | 0.08 | 0.25 | 0.25 | 74 | 820.6 |
| 20260504232335 | 12 | 15 | 1.6 | 6.4 | 0.08 | 0.25 | 0.25 | 76 | 820.5 |
| 20260504231835 | 12 | 15 | 4.8 | 8.0 | 0.08 | 0.25 | 0.25 | 76 | 820.4 |
| 20260504231328 | 12 | 15 | 4.8 | 9.7 | 0.08 | 0.25 | 0.25 | 76 | 820.4 |
| 20260504230826 | 12 | 26 | 4.8 | 11.3 | 0.08 | 0.25 | 0.25 | 79 | 820.6 |
| 20260504230325 | 12 | 282 | 6.4 | 11.3 | 0.08 | 0.25 | 0.25 | 74 | 820.4 |
| 20260504225814 | 12 | 282 | 8.0 | 17.7 | 0.08 | 0.25 | 0.25 | 74 | 820.2 |
| 20260504225312 | 12 | 252 | 8.0 | 17.7 | 0.08 | 0.25 | 0.25 | 72 | 820.5 |
| 20260504224810 | 12 | 267 | 9.7 | 20.9 | 0.08 | 0.25 | 0.25 | 72 | 820.4 |
| 20260504224313 | 13 | 272 | 9.7 | 20.9 | 0.05 | 0.23 | 0.23 | 68 | 820.7 |
| 20260504223748 | 13 | 284 | 4.8 | 17.7 | 0.05 | 0.23 | 0.23 | 65 | 820.6 |
| 20260504223251 | 14 | 310 | 1.6 | 6.4 | 0.03 | 0.20 | 0.20 | 66 | 820.7 |
| 20260504222726 | 14 | 306 | 1.6 | 8.0 | 0.00 | 0.18 | 0.18 | 54 | 820.6 |
| 20260504222159 | 14 | 306 | 1.6 | 8.0 | 0.00 | 0.18 | 0.18 | 53 | 820.4 |
| 20260504221633 | 14 | 65 | 4.8 | 16.1 | 0.00 | 0.18 | 0.18 | 54 | 820.4 |
| 20260504221130 | 15 | 65 | 11.3 | 17.7 | 0.00 | 0.18 | 0.18 | 53 | 820.0 |
| 20260504220606 | 15 | 35 | 11.3 | 20.9 | 0.00 | 0.18 | 0.18 | 54 | 819.8 |
| 20260504220046 | 15 | 24 | 9.7 | 20.9 | 0.00 | 0.18 | 0.18 | 55 | 819.5 |
| 20260504215542 | 15 | 40 | 11.3 | 17.7 | 0.00 | 0.18 | 0.18 | 57 | 819.4 |
| 20260504215039 | 14 | 48 | 12.9 | 20.9 | 0.00 | 0.18 | 0.18 | 57 | 819.4 |
| 20260504214537 | 14 | 48 | 14.5 | 20.9 | 0.00 | 0.18 | 0.18 | 59 | 819.4 |
| 20260504214038 | 14 | 51 | 14.5 | 25.7 | 0.03 | 0.18 | 0.18 | 58 | 819.5 |
| 20260504213530 | 14 | 65 | 14.5 | 25.7 | 0.05 | 0.18 | 0.18 | 60 | 819.6 |
| 20260504213030 | 14 | 69 | 16.1 | 25.7 | 0.13 | 0.18 | 0.18 | 58 | 819.8 |
| 20260504212528 | 14 | 62 | 20.9 | 35.4 | 0.18 | 0.18 | 0.18 | 60 | 819.9 |
| 20260504212249 | 15 | 32 | 22.5 | 35.4 | 0.18 | 0.18 | 0.18 | 58 | 819.9 |
| 20260504211027 | 13 | 60 | 17.7 | 30.6 | 0.18 | 0.18 | 0.18 | 66 | 820.2 |
| 20260504210528 | 13 | 94 | 17.7 | 27.4 | 0.18 | 0.18 | 0.18 | 65 | 820.2 |
| 20260504210025 | 13 | 83 | 17.7 | 24.1 | 0.18 | 0.18 | 0.18 | 67 | 820.2 |
| 20260504205523 | 13 | 88 | 16.1 | 27.4 | 0.18 | 0.18 | 0.18 | 64 | 820.2 |
| 20260504205025 | 13 | 71 | 14.5 | 25.7 | 0.18 | 0.18 | 0.18 | 64 | 820.0 |
| 20260504204524 | 13 | 69 | 19.3 | 35.4 | 0.18 | 0.18 | 0.18 | 60 | 820.1 |
| 20260504204256 | 13 | 66 | 19.3 | 35.4 | 0.15 | 0.15 | 0.15 | 55 | 820.0 |
| 20260504203504 | 15 | 52 | 17.7 | 29.0 | 0.13 | 0.13 | 0.13 | 53 | 819.9 |
| 20260504203233 | 16 | 5 | 19.3 | 29.0 | 0.03 | 0.03 | 0.03 | 51 | 819.7 |
| 20260504202502 | 18 | 348 | 16.1 | 27.4 | 0.00 | 0.00 | 0.00 | 43 | 819.5 |
| 20260504202227 | 19 | 335 | 14.5 | 24.1 | 0.00 | 0.00 | 0.00 | 34 | 819.3 |
| 20260504201503 | 19 | 330 | 14.5 | 24.1 | 0.00 | 0.00 | 0.00 | 34 | 819.1 |
| 20260504200943 | 20 | 337 | 12.9 | 20.9 | 0.00 | 0.00 | 0.00 | 34 | 819.0 |
| 20260504195941 | 20 | 339 | 14.5 | 29.0 | 0.00 | 0.00 | 0.00 | 33 | 818.7 |
| 20260504195441 | 20 | 10 | 19.3 | 29.0 | 0.00 | 0.00 | 0.00 | 33 | 818.7 |
| 20260504194942 | 20 | 40 | 20.9 | 33.8 | 0.00 | 0.00 | 0.00 | 33 | 818.6 |
| 20260504194431 | 20 | 42 | 19.3 | 33.8 | 0.00 | 0.00 | 0.00 | 34 | 818.4 |
| 20260504194146 | 20 | 348 | 19.3 | 33.8 | 0.00 | 0.00 | 0.00 | 34 | 818.5 |
| 20260504193428 | 20 | 343 | 20.9 | 33.8 | 0.00 | 0.00 | 0.00 | 33 | 818.8 |
| 20260504192928 | 21 | 15 | 20.9 | 30.6 | 0.00 | 0.00 | 0.00 | 33 | 818.7 |
| 20260504192428 | 21 | 32 | 17.7 | 27.4 | 0.00 | 0.00 | 0.00 | 32 | 818.8 |
| 20260504191927 | 21 | 335 | 14.5 | 27.4 | 0.00 | 0.00 | 0.00 | 31 | 818.9 |
| 20260504191416 | 21 | 312 | 16.1 | 24.1 | 0.00 | 0.00 | 0.00 | 32 | 818.9 |
| 20260504190913 | 21 | 306 | 16.1 | 29.0 | 0.00 | 0.00 | 0.00 | 32 | 819.0 |
| 20260504190414 | 21 | 332 | 16.1 | 29.0 | 0.00 | 0.00 | 0.00 | 33 | 819.0 |
| 20260504185917 | 20 | 0 | 16.1 | 25.7 | 0.00 | 0.00 | 0.00 | 33 | 819.1 |
| 20260504185353 | 20 | 261 | 16.1 | 25.7 | 0.00 | 0.00 | 0.00 | 33 | 819.2 |
| 20260504184824 | 20 | 292 | 16.1 | 25.7 | 0.00 | 0.00 | 0.00 | 34 | 819.2 |
| 20260504184255 | 20 | 293 | 17.7 | 25.7 | 0.00 | 0.00 | 0.00 | 34 | 819.2 |
| 20260504183726 | 20 | 293 | 17.7 | 25.7 | 0.00 | 0.00 | 0.00 | 33 | 819.3 |
| 20260504183216 | 20 | 223 | 16.1 | 24.1 | 0.00 | 0.00 | 0.00 | 34 | 819.4 |
| 20260504182909 | 20 | 257 | 12.9 | 24.1 | 0.00 | 0.00 | 0.00 | 34 | 819.4 |
| 20260504182131 | 19 | 284 | 14.5 | 27.4 | 0.00 | 0.00 | 0.00 | 34 | 819.4 |
| 20260504181633 | 19 | 284 | 17.7 | 27.4 | 0.00 | 0.00 | 0.00 | 34 | 819.6 |
| 20260504181108 | 19 | 309 | 17.7 | 30.6 | 0.00 | 0.00 | 0.00 | 35 | 819.6 |
| 20260504180611 | 18 | 240 | 17.7 | 30.6 | 0.00 | 0.00 | 0.00 | 36 | 819.6 |
| 20260504180045 | 18 | 242 | 19.3 | 29.0 | 0.00 | 0.00 | 0.00 | 36 | 819.7 |
| 20260504175734 | 18 | 271 | 17.7 | 32.2 | 0.00 | 0.00 | 0.00 | 36 | 819.9 |
| 20260504174958 | 18 | 271 | 17.7 | 32.2 | 0.00 | 0.00 | 0.00 | 36 | 820.0 |
| 20260504174502 | 18 | 257 | 20.9 | 30.6 | 0.00 | 0.00 | 0.00 | 37 | 820.1 |
| 20260504173933 | 18 | 232 | 19.3 | 32.2 | 0.00 | 0.00 | 0.00 | 37 | 820.2 |
| 20260504173405 | 17 | 252 | 17.7 | 33.8 | 0.00 | 0.00 | 0.00 | 37 | 820.3 |
| 20260504173100 | 17 | 232 | 17.7 | 33.8 | 0.00 | 0.00 | 0.00 | 37 | 820.2 |
| 20260504172325 | 17 | 263 | 16.1 | 35.4 | 0.00 | 0.00 | 0.00 | 37 | 820.3 |
| 20260504171254 | 17 | 265 | 22.5 | 35.4 | 0.00 | 0.00 | 0.00 | 37 | 820.5 |
| 20260504170727 | 17 | 272 | 25.7 | 40.2 | 0.00 | 0.00 | 0.00 | 37 | 820.4 |
| 20260504170159 | 17 | 290 | 25.7 | 40.2 | 0.00 | 0.00 | 0.00 | 37 | 820.3 |
| 20260504160110 | 17 | 288 | 12.9 | 33.8 | 0.00 | 0.00 | 0.00 | 37 | 820.4 |
| 20260504150958 | 17 | 290 | 20.9 | 35.4 | 0.00 | 0.00 | 0.00 | 35 | 820.4 |
| 20260504150425 | 17 | 280 | 20.9 | 35.4 | 0.00 | 0.00 | 0.00 | 35 | 820.5 |
| 20260504141052 | 17 | 249 | 12.9 | 24.1 | 0.00 | 0.00 | 0.00 | 34 | 820.5 |
| 20260504140551 | 16 | 254 | 12.9 | 24.1 | 0.00 | 0.00 | 0.00 | 34 | 820.5 |
| 20260504130805 | 16 | 0 | 17.7 | 32.2 | 0.00 | 0.00 | 0.00 | 34 | 820.3 |
| 20260504110321 | 8 | 0 | 3.2 | 6.4 | 0.00 | 0.00 | 0.00 | 47 | 820.4 |
| 20260504100452 | 8 | 0 | 3.2 | 6.4 | 0.00 | 0.00 | 0.00 | 47 | 820.5 |
| 20260504081643 | 10 | 0 | 1.6 | 4.8 | 0.00 | 0.00 | 0.00 | 43 | 821.1 |
| 20260504081141 | 10 | 0 | 1.6 | 6.4 | 0.00 | 0.00 | 0.00 | 43 | 821.2 |
| 20260504080640 | 10 | 0 | 1.6 | 6.4 | 0.00 | 0.00 | 0.00 | 43 | 821.1 |
| 20260504080142 | 10 | 0 | 3.2 | 6.4 | 0.00 | 0.00 | 0.00 | 43 | 821.3 |
| 20260504050453 | 14 | 26 | 9.7 | 16.1 | 0.00 | 0.00 | 0.00 | 36 | 822.1 |
| 20260504045949 | 15 | 13 | 9.7 | 16.1 | 0.00 | 0.00 | 0.00 | 35 | 822.1 |
| 20260504045709 | 15 | 25 | 8.0 | 16.1 | 0.00 | 0.00 | 0.00 | 34 | 821.9 |
| 20260504044950 | 16 | 98 | 6.4 | 16.1 | 0.00 | 0.00 | 0.00 | 32 | 821.9 |
| 20260504044450 | 16 | 260 | 8.0 | 14.5 | 0.00 | 0.00 | 0.00 | 32 | 821.8 |
| 20260504043449 | 16 | 275 | 4.8 | 11.3 | 0.00 | 0.00 | 0.00 | 32 | 821.8 |
| 20260504042949 | 16 | 257 | 6.4 | 11.3 | 0.00 | 0.00 | 0.00 | 33 | 821.8 |
| 20260504042448 | 16 | 223 | 8.0 | 12.9 | 0.00 | 0.00 | 0.00 | 33 | 821.8 |
| 20260504041947 | 16 | 240 | 8.0 | 12.9 | 0.00 | 0.00 | 0.00 | 32 | 821.8 |
| 20260504041448 | 16 | 244 | 6.4 | 12.9 | 0.00 | 0.00 | 0.00 | 33 | 821.8 |
| 20260504040946 | 16 | 236 | 6.4 | 11.3 | 0.00 | 0.00 | 0.00 | 33 | 821.9 |
| 20260504040450 | 16 | 242 | 8.0 | 11.3 | 0.00 | 0.00 | 0.00 | 33 | 821.9 |
| 20260504035925 | 16 | 247 | 8.0 | 11.3 | 0.00 | 0.00 | 0.00 | 33 | 821.9 |
| 20260504035354 | 16 | 256 | 8.0 | 14.5 | 0.00 | 0.00 | 0.00 | 33 | 821.9 |
| 20260504034822 | 16 | 241 | 6.4 | 14.5 | 0.00 | 0.00 | 0.00 | 33 | 821.9 |
| 20260504034251 | 16 | 238 | 8.0 | 12.9 | 0.00 | 0.00 | 0.00 | 33 | 822.0 |
| 20260504033755 | 16 | 242 | 8.0 | 12.9 | 0.00 | 0.00 | 0.00 | 33 | 822.1 |
| 20260504033230 | 16 | 234 | 8.0 | 12.9 | 0.00 | 0.00 | 0.00 | 33 | 822.1 |
| 20260504032728 | 16 | 232 | 8.0 | 12.9 | 0.00 | 0.00 | 0.00 | 34 | 822.0 |
| 20260504032227 | 16 | 240 | 8.0 | 11.3 | 0.00 | 0.00 | 0.00 | 34 | 822.1 |
| 20260504031716 | 16 | 246 | 6.4 | 9.7 | 0.00 | 0.00 | 0.00 | 34 | 822.0 |
| 20260504031414 | 16 | 254 | 6.4 | 9.7 | 0.00 | 0.00 | 0.00 | 33 | 822.0 |
| 20260504030652 | 16 | 254 | 6.4 | 9.7 | 0.00 | 0.00 | 0.00 | 33 | 822.0 |
| 20260504030122 | 16 | 245 | 6.4 | 12.9 | 0.00 | 0.00 | 0.00 | 33 | 822.0 |
| 20260504025812 | 16 | 246 | 6.4 | 12.9 | 0.00 | 0.00 | 0.00 | 33 | 822.0 |
| 20260504025240 | 17 | 259 | 6.4 | 9.7 | 0.00 | 0.00 | 0.00 | 32 | 821.9 |
| 20260504023920 | 17 | 246 | 8.0 | 12.9 | 0.00 | 0.00 | 0.00 | 31 | 821.9 |
| 20260504023357 | 17 | 243 | 8.0 | 12.9 | 0.00 | 0.00 | 0.00 | 31 | 821.7 |
| 20260504022859 | 18 | 240 | 8.0 | 12.9 | 0.00 | 0.00 | 0.00 | 31 | 821.7 |
| 20260504022613 | 18 | 242 | 9.7 | 14.5 | 0.00 | 0.00 | 0.00 | 31 | 821.7 |
| 20260504021854 | 18 | 248 | 9.7 | 16.1 | 0.00 | 0.00 | 0.00 | 31 | 821.8 |
| 20260504021354 | 18 | 273 | 9.7 | 16.1 | 0.00 | 0.00 | 0.00 | 31 | 821.8 |
| 20260504020851 | 18 | 245 | 8.0 | 14.5 | 0.00 | 0.00 | 0.00 | 31 | 821.8 |
| 20260504020340 | 18 | 238 | 9.7 | 12.9 | 0.00 | 0.00 | 0.00 | 30 | 821.8 |
| 20260504015840 | 18 | 254 | 9.7 | 16.1 | 0.00 | 0.00 | 0.00 | 30 | 821.8 |
| 20260504015339 | 18 | 250 | 8.0 | 16.1 | 0.00 | 0.00 | 0.00 | 30 | 821.7 |
| 20260504014840 | 18 | 242 | 8.0 | 14.5 | 0.00 | 0.00 | 0.00 | 30 | 821.7 |
| 20260504014339 | 18 | 261 | 8.0 | 14.5 | 0.00 | 0.00 | 0.00 | 30 | 821.8 |
| 20260504013836 | 18 | 247 | 6.4 | 12.9 | 0.00 | 0.00 | 0.00 | 30 | 821.7 |
| 20260504013334 | 18 | 262 | 9.7 | 14.5 | 0.00 | 0.00 | 0.00 | 30 | 821.7 |
| 20260504012834 | 18 | 246 | 9.7 | 17.7 | 0.00 | 0.00 | 0.00 | 30 | 821.7 |
| 20260504012554 | 19 | 259 | 9.7 | 17.7 | 0.00 | 0.00 | 0.00 | 30 | 821.6 |
| 20260504011832 | 19 | 274 | 12.9 | 22.5 | 0.00 | 0.00 | 0.00 | 30 | 821.7 |
| 20260504011330 | 19 | 292 | 12.9 | 22.5 | 0.00 | 0.00 | 0.00 | 30 | 821.8 |
| 20260504010832 | 19 | 296 | 12.9 | 22.5 | 0.00 | 0.00 | 0.00 | 30 | 821.7 |
| 20260504010318 | 19 | 279 | 12.9 | 22.5 | 0.00 | 0.00 | 0.00 | 30 | 821.7 |
| 20260504010038 | 19 | 283 | 12.9 | 29.0 | 0.00 | 0.00 | 0.00 | 31 | 821.7 |
| 20260504005533 | 19 | 248 | 14.5 | 29.0 | 0.00 | 0.00 | 0.00 | 30 | 821.8 |
| 20260504004812 | 20 | 288 | 12.9 | 22.5 | 0.00 | 0.00 | 0.00 | 30 | 821.8 |
| 20260504004312 | 20 | 267 | 14.5 | 27.4 | 0.00 | 0.00 | 0.00 | 31 | 821.9 |
| 20260504003812 | 20 | 287 | 14.5 | 27.4 | 0.00 | 0.00 | 0.00 | 31 | 822.1 |
| 20260504002758 | 20 | 261 | 8.0 | 20.9 | 0.00 | 0.00 | 0.00 | 30 | 822.1 |
| 20260504002300 | 20 | 262 | 11.3 | 20.9 | 0.00 | 0.00 | 0.00 | 30 | 822.1 |